Вернуться в каталог

NOAA 16 DEB

АктивенSSO
NORAD 41153·DEBRIS·🇺🇸 United States

Запущен Sep 21, 2000 с Vandenberg Space Force Base

Loading…

Ближайшие Пролёты (ближайшие 24 часа)

TLE

СвежийSource: Space-Track

Эпоха: Sep 14, 2026, 13:20 UTC

1 41153U 00055CL  26257.55623835  .00003741  00000-0  12218-2 0  9994
2 41153  98.7959  15.7186 0016140 230.4488 129.5273 14.39121574559568

Отслеживайте NOAA 16 DEB в реальном времени с AllMySat

Download on the App Store